Home > Weather > Stans > Past weeks

Flag for Switzerland Past Weather in Stans, Nidwalden, Switzerland — Yesterday and Last 2 Weeks

Now
61 °F

Cool.


Feels Like: 61 °F
Forecast: 54 / 68 °F
Wind: 6 mph from Southwest

Location: Giswil

Current Time: May 29, 2016 at 9:31:01 PM

Latest Report: May 29, 2016 at 8:00 PM


Visibility: N/A

Pressure: 29.73 "Hg

Humidity: 73%

Dew Point: 53 °F

Location of StansLocation

Past Weather in Stans — Graph

°F

Stans Temperature Yesterday

Maximum temperature yesterday: 69 °F (at 3:00 PM)
Minimum temperature yesterday: 56 °F (at 6:00 AM)
Average temperature yesterday: 62 °F

High & Low Weather Summary for the Past Weeks

 TemperatureHumidityPressure
High82 °F (May 22, 3:00 PM)100% (May 20, 5:00 AM)30.24 "Hg (May 20, 5:00 AM)
Low37 °F (May 20, 6:00 AM)22% (May 22, 5:00 PM)29.68 "Hg (May 22, 5:00 PM)
Average55 °F78%30.00 "Hg
* Reported May 14 8:00 PM — May 29 8:00 PM, Stans, Weather by CustomWeather, © 2016

Note: Actual official high and low records may vary slightly from our data, if they occured in-between our weather recording intervals... More about our weather records

Advertising

Stans Weather History for the Previous 24 Hours

Scroll right to see more
 ConditionsComfort  
Time TempWeatherWind HumidityBarometerVisibility
8:00 PM
Sun, May 29
61 °FCool.6 mph73%29.73 "HgN/A
7:00 PM63 °FMild.6 mph69%29.72 "HgN/A
6:00 PM64 °FMild.6 mph67%29.71 "HgN/A
5:00 PM64 °FMild.6 mph67%29.71 "HgN/A
4:00 PM63 °FMild.3 mph71%29.72 "HgN/A
3:00 PM62 °FCool.6 mph75%29.74 "HgN/A
2:00 PM60 °FCool.5 mph84%29.74 "HgN/A
1:00 PM59 °FCool.6 mph80%29.73 "HgN/A
12:00 PM63 °FMild.1 mph85%29.70 "HgN/A
11:00 AM63 °FMild.No wind83%29.70 "HgN/A
10:00 AM63 °FMild.2 mph79%29.71 "HgN/A
9:00 AM61 °FCool.1 mph91%29.73 "HgN/A
8:00 AM60 °FCool.1 mph97%29.75 "HgN/A
7:00 AM60 °FCool.1 mph98%29.75 "HgN/A
6:00 AM60 °FCool.1 mph95%29.75 "HgN/A
5:00 AM59 °FCool.2 mph96%29.75 "HgN/A
4:00 AM59 °FCool.2 mph96%29.75 "HgN/A
3:00 AM59 °FCool.2 mph96%29.79 "HgN/A
2:00 AM59 °FCool.1 mph95%29.79 "HgN/A
1:00 AM58 °FCool.1 mph97%29.80 "HgN/A
12:00 AM59 °FCool.1 mph97%29.78 "HgN/A
11:00 PM
Sat, May 28
59 °FCool.2 mph96%29.77 "HgN/A
10:00 PM62 °FCool.2 mph90%29.77 "HgN/A
9:00 PM62 °FCool.2 mph95%29.78 "HgN/A
Weather by CustomWeather, © 2016

See weather overviewHow to use our weather pages